Location: Honey Creek State Natural Area
(29.8555°N, 98.4942°W)
Time: 18:35:43
(UTC-06:00)

N. Korean satellite - Visible Passes

Search period start: 21 January 2018 00:00
Search period end: 31 January 2018 00:00
Orbit: 458 x 515 km, 97.2° (Epoch: 20 January)

Date Brightness Start Highest point End Pass type
(mag) Time Alt. Az. Time Alt. Az. Time Alt. Az.
21 Jan 8.5 19:06:10 10° SSW 19:09:26 32° W 19:12:41 10° NNW visible
22 Jan 9.0 06:39:10 10° NE 06:42:07 26° E 06:45:05 10° SSE visible
22 Jan 6.7 18:42:10 10° S 18:45:46 77° WSW 18:49:20 10° NNW visible
23 Jan 10.1 06:16:53 10° ENE 06:18:22 12° E 06:19:51 10° ESE visible
24 Jan 9.9 19:29:46 10° SW 19:31:59 15° W 19:34:10 10° WNW visible
25 Jan 7.1 07:01:11 10° NNE 07:04:36 61° E 07:08:03 10° S visible
25 Jan 8.5 19:05:00 10° SSW 19:08:14 33° W 19:11:28 10° NNW visible
26 Jan 9.1 06:37:57 10° NE 06:40:54 26° E 06:43:52 10° SSE visible
26 Jan 6.7 18:41:00 10° S 18:44:34 80° W 18:48:05 10° NNW visible
27 Jan 10.1 06:15:43 10° ENE 06:17:08 12° E 06:18:34 10° ESE visible
28 Jan 9.9 19:28:32 10° SW 19:30:45 16° W 19:32:57 10° WNW visible
29 Jan 7.2 06:59:55 10° NNE 07:03:21 59° E 07:06:50 10° S visible
29 Jan 8.4 19:03:46 10° SSW 19:07:00 34° W 19:10:13 10° NNW visible
30 Jan 9.1 06:36:42 10° NE 06:39:39 25° E 06:42:38 10° SSE visible
30 Jan 6.6 18:39:47 10° S 18:43:19 83° WSW 18:46:49 10° NNW visible
